Location: Newark
(45.9456°N, 15.4064°E)
Time: 07:24:51
(UTC+00:00)

Vanguard 3 - Pass Details

Date: 25 January 2020
Orbit: 508 x 3263 km, 33.3° (Epoch: 20 February)

Event Time Altitude Azimuth Distance (km) Brightness Sun altitude
Rises 13:42:00 0° 193° (SSW) 6,575 13.0 16.6°
Reaches altitude 10° 13:47:45 10° 180° (S) 5,877 12.5 16.0°
Maximum altitude 14:00:23 22° 138° (SE) 5,197 11.4 14.5°
Drops below altitude 10° 14:13:05 10° 97° (E) 5,975 11.2 13.1°
Sets 14:18:52 0° 84° (E) 6,716 11.4 12.4°
